www.pogodaiklimat.ru

Погода и климат >> Архив погоды >> Таиланд >> Накхон Саван


ПОГОДА в Накхон Саван

  • Прогноз погоды в Накхон Саван
  • Монитор погоды в Накхон Саван

АРХИВ ПОГОДЫ в Накхон Саван

Время (UTC), дата Ветер
(напр.,м/с)
 
Видим.   Явления Облачность Т
(С)
Тd
(С)
f
(%)
Тe
(С)
Тes
(С)
Комфортность P
(гПа)
Po
(гПа)
Тmin
(С)
Tmax
(С)
R
(мм)
R24
(мм)
S
(см)
03 17.07 штиль 0 12 км 4/0
[Cs]
+31.2 +24.5 68 +44 +63 опасность
перегрева
1004.5 1000.6
06 17.07 штиль 0 12 км 5/4 600 м
[Cu Sc Ac lent Cs]
+34.5 +26.9 65 +52 +68 опасность
перегрева
1003.4 999.4
09 17.07 штиль 0 12 км 6/3 600 м
[Cu Sc Ac lent Cs]
+34.8 +26.8 63 +52 +58 опасность
перегрева
1000.6 996.7
12 17.07 штиль 0 10 км 3/1 600 м
[Sc Ac lent Cs]
+33.0 +25.3 64 +47 +47 опасность
перегрева
1000.6 996.7 +36.4
15 17.07 штиль 0 10 км 6/3 600 м
[Sc Ac lent Cs]
+31.0 +26.1 75 +46 +46 опасность
перегрева
1003.4 999.4
18 17.07 штиль 0 10 км 8/3 600 м
[Sc Ac lent Cs]
+29.2 +26.8 87 +46 +46 опасность
перегрева
1002.9 998.9
21 17.07 штиль 0 10 км 8/3 600 м
[Sc Ac lent Cs]
+27.5 +25.4 88 +40 +40 очень
душно
1002.3 998.3
00 18.07 штиль 0 10 км 8/0
[Ac lent Cs]
+26.5 +25.1 92 +38 +39 очень
душно
1002.9 998.9 +26.0
03 18.07 штиль 0 12 км 3/1 600 м
[Sc Cs]
+32.4 +25.8 68 +48 +66 опасность
перегрева
1003.8 999.8
06 18.07 ЮВ 2 12 км 5/3 600 м
[Cu med, cong Ac lent Cs]
+35.3 +26.1 59 +51 +64 опасность
перегрева
1003.1 999.1
09 18.07 В 2 12 км 10/3 600 м
[Cu med, cong Ac lent Cs]
+36.0 +26.6 59 +53 +56 опасность
перегрева
1000.8 996.9
12 18.07 ЮЗ 3 12 км 6/3 600 м
[Cb cap Ac lent Ci ing]
+29.5 +25.2 78 +43 +43 опасность
перегрева
1002.2 998.2 +36.7
15 18.07 штиль 0 10 км 3/0
[Cs]
+28.8 +24.8 79 +41 +41 опасность
перегрева
1003.7 999.7
18 18.07 штиль 0 10 км 3/0
[Cs]
+27.8 +25.5 87 +41 +41 опасность
перегрева
1003.5 999.5
21 18.07 ЮЗ 3 10 км 5/0
[Cs]
+27.5 +25.4 88 +40 +40 очень
душно
1002.7 998.7
00 19.07 штиль 0 12 км 6/0
[Ac lent Cs]
+26.7 +25.7 94 +39 +41 очень
душно
1003.7 999.7 +26.0
03 19.07 штиль 0 12 км 1/1 600 м
[Sc Cs]
+32.5 +25.5 67 +47 +66 опасность
перегрева
1005.0 1001.0
06 19.07 штиль 0 12 км 3/3 600 м
[Cu med, cong Cs]
+35.4 +26.6 61 +53 +73 опасность
перегрева
1004.0 1000.1
09 19.07 штиль 0 12 км 3/1 600 м
[Sc Cs]
+37.0 +25.1 51 +51 +60 опасность
перегрева
1001.6 997.7
12 19.07 штиль 0 10 км 3/1 600 м
[Cu med, cong Ac lent Cs]
+33.5 +25.8 64 +49 +49 опасность
перегрева
1001.7 997.7 +37.3
15 19.07 Ю 4 10 км 3/1 600 м
[Sc Ac lent Cs]
+29.6 +25.9 81 +44 +44 опасность
перегрева
1004.3 1000.3
18 19.07 Ю 3 10 км 3/0
[Cs]
+27.5 +25.8 90 +41 +41 опасность
перегрева
1004.6 1000.6
21 19.07 штиль 0 10 км 3/0
[Cs]
+26.2 +25.2 94 +38 +38 очень
душно
1003.8 999.7
00 20.07 штиль 0 10 км 3/0
[Ac lent Cs]
+26.1 +25.7 98 +38 +40 очень
душно
1005.3 1001.2 +25.6
03 20.07 З 1 12 км 4/1 600 м
[Cu hum Ac lent Cs]
+31.5 +25.7 71 +46 +60 опасность
перегрева
1006.5 1002.5
06 20.07 С 2 12 км 6/3 600 м
[Cu med, cong Ac trans Cs]
+35.5 +25.4 56 +50 +62 опасность
перегрева
1005.5 1001.6
09 20.07 СВ 4 12 км 8/4 300 м
[Cu Sc Ac trans Cs]
+36.3 +26.2 56 +52 +54 опасность
перегрева
1002.4 998.5
12 20.07 Ю 5 10 км 6/3 600 м
[Cu med, cong Ac trans Cs]
+33.5 +25.8 64 +49 +49 опасность
перегрева
1003.2 999.2 +36.8
15 20.07 ЮЗ 4 10 км 4/1 600 м
[Cu med, cong Ac trans Cs]
+30.2 +25.4 76 +44 +44 опасность
перегрева
1006.3 1002.3
18 20.07 Ю 4 10 км 3/0
[Ac trans Cs]
+28.7 +25.3 82 +42 +42 опасность
перегрева
1006.0 1002.0
21 20.07 Ю 4 10 км 4/1 600 м
[Cu hum Ac trans Cs]
+27.6 +26.3 93 +42 +42 опасность
перегрева
1005.4 1001.4
00 21.07 Ю 2 10 км 8/3 600 м
[Sc Ac trans Cs]
+27.8 +26.7 94 +43 +44 опасность
перегрева
1006.9 1002.8 +27.2
03 21.07 Ю 6 12 км 9/3 600 м
[Sc Ac trans Cs]
+31.4 +27.0 78 +49 +52 опасность
перегрева
1007.6 1003.6
06 21.07 Ю 8 12 км 9/3 600 м
[Cu med, cong Ac lent Cs]
+34.3 +26.1 62 +50 +52 опасность
перегрева
1006.6 1002.7
09 21.07 Ю 6 12 км 5/3 600 м
[Cb cap Ac lent Ci ing]
+35.0 +25.6 58 +50 +52 опасность
перегрева
1004.3 1000.3
12 21.07 СЗ 3 12 км 9/4 600 м
[Sc Ac trans Cs]
+32.0 +26.0 71 +48 +48 опасность
перегрева
1005.2 1001.3 +35.3
15 21.07 штиль 0 10 км 8/4 600 м
[Sc Ac trans Cs]
+28.6 +25.9 85 +43 +43 опасность
перегрева
1007.6 1003.6
18 21.07 штиль 0 10 км 8/3 600 м
[Sc Ac trans Cs]
+27.8 +26.2 91 +42 +42 опасность
перегрева
1007.0 1002.9
21 21.07 штиль 0 10 км 9/4 600 м
[Sc Ac trans Cs]
+27.3 +26.2 94 +41 +41 опасность
перегрева
1006.8 1002.8
00 22.07 штиль 0 12 км 8/5 600 м
[Sc Ac trans Cs]
+27.7 +25.6 88 +41 +41 опасность
перегрева
1007.8 1003.7 +26.7
03 22.07 Ю 3 12 км 8/3 600 м
[Sc Ac trans Cs]
+32.8 +24.7 62 +46 +51 опасность
перегрева
1008.2 1004.2
06 22.07 В 1 12 км 9/5 600 м
[Cu Sc Ac lent Cs]
+35.3 +25.0 55 +49 +56 опасность
перегрева
1007.7 1003.7
09 22.07 СВ 3 12 км 8/4 600 м
[Cu Sc Ac trans Cs]
+35.2 +25.2 56 +49 +52 опасность
перегрева
1004.5 1000.6
12 22.07 штиль 0 12 км 6/3 600 м
[Cu Sc Ac lent Cs]
+32.0 +26.9 74 +49 +49 опасность
перегрева
1004.7 1000.7 +36.5
15 22.07 штиль 0 10 км 8/4 600 м
[Sc Ac trans Cs]
+29.7 +26.8 84 +46 +46 опасность
перегрева
1006.9 1002.9
18 22.07 штиль 0 9000 м слаб. дождь 10/4 600 м
[Sc As op Cs]
+29.0 +27.2 90 +46 +46 опасность
перегрева
1006.7 1002.7 0.0
21 22.07 СВ 1 9000 м слаб. дождь 10/5 600 м
[Sc As op Cs]
+28.2 +26.5 91 +44 +44 опасность
перегрева
1006.0 1002.0 0.0
00 23.07 Ю 3 9000 м дымка {дождь} 10/5 600 м
[Sc Ac trans Cs]
+28.0 +25.9 88 +42 +42 опасность
перегрева
1006.6 1002.6 +27.2 0.1
03 23.07 ЮЗ 3 10 км 10/4 600 м
[Sc Ac trans Cs]
+32.2 +25.9 69 +47 +51 опасность
перегрева
1007.2 1003.3
06 23.07 СЗ 3 12 км 10/5 600 м
[Sc Ac trans Cs]
+35.6 +25.1 55 +49 +54 опасность
перегрева
1005.5 1001.5
09 23.07 Ю 3 12 км 10/4 600 м
[Sc Ac trans Cs]
+34.2 +24.9 58 +47 +49 опасность
перегрева
1004.4 1000.5
12 23.07 штиль 0 12 км 10/3 600 м
[Sc Ac trans Cs]
+32.5 +25.8 68 +48 +48 опасность
перегрева
1004.0 1000.0 +35.8
15 23.07 штиль 0 10 км 9/3 600 м
[Sc Ac trans Cs]
+30.7 +24.3 69 +43 +43 опасность
перегрева
1007.0 1003.0
18 23.07 штиль 0 10 км 10/4 600 м
[Sc Ac trans Cs]
+29.4 +24.2 74 +41 +41 опасность
перегрева
1006.8 1002.8
21 23.07 штиль 0 10 км 10/5 600 м
[Sc Ac trans Cs]
+28.7 +24.5 78 +41 +41 опасность
перегрева
1005.6 1001.6

 

Местоположение метеостанции Накхон Саван (Таиланд): широта 15.80 долгота 100.16 высота над уровнем моря 35 м.

В архиве по умолчанию представлена погода в Накхон Саван за последнюю неделю. Архивные данные за месяц целиком и за предыдущие месяцы, начиная с января 2011 года, Вы можете получить, выбрав интересующий диапазон дат из раскрывающегося списка и нажав кнопку "Ввод!".


*Определитесь, кто Вы:
робот инопланетянин человек

Внимание! Время в таблицах - всемирное. Для получения местного времени необходимо прибавить поправку, которая равна 7 ч.

Смотрите также архив погоды в соседних городах и на ближайших метеорологических станциях:

Погода в Утай Тани (Таиланд) (48 км)
Погода в Такфа Агромете (Таиланд) (62 км)
Погода в Пичит Агромете (Таиланд) (71 км)
Погода в Чайнат Агромете (Таиланд) (72 км)
Погода в Кампхэнгпхете (Таиланд) (101 км)
Погода в Вичан Бури (Таиланд) (103 км)
Погода в Пхитсанулоке (Таиланд) (110 км)
Погода в Лаем-Чабанге (Таиланд) (111 км)
Погода в Лопбури (Таиланд) (121 км)
Погода в Буа Чум (Таиланд) (124 км)

Пояснения к столбцам:

Ветер - указаны скорость ветра в м/с - средняя за 10 мин, порывы в срок и между сроками (в фигурных скобках) и направление, откуда дует ветер: С - северный, СВ - северо-восточный, В - восточный, ЮВ - юго-восточный, Ю - южный, ЮЗ - юго-западный, З - западный, СЗ - северо-западный.
Видимость - горизонтальная дальность видимости в метрах или километрах. При видимости от 1 до 10 км при отсутствии осадков обычно наблюдается дымка, при ухудшении видимости до 1 км и менее - туман. В сухую погоду видимость может ухудшаться дымом, пылью или мглою.
Явления - указаны атмосферные явления, наблюдавшиеся в срок или в последний час перед сроком; фигурными скобками обозначены явления, наблюдавшиеся между сроками (за 1-3 часа до срока); квадратными скобками обозначены град или гололедные отложения с указанием их диаметра в мм.
Облачность - указаны через наклонную черту общая и нижняя облачность в баллах и высота нижней границы облаков в метрах; квадратными скобками обозначены формы облаков: Ci - перистые, Cs - перисто-слоистые, Cc - перисто-кучевые, Ac - высококучевые, As - высокослоистые, Sc - слоисто-кучевые, Ns - слоисто-дождевые, Cu - кучевые, Cb - кучево-дождевые. Подробнее классификацию облаков см. в Атласе облаков (PDF).
T - Температура воздуха - температура, измеренная на высоте 2 м над землей.
Td - Температура точки росы - температура, при понижении до которой содержащийся в воздухе водяной пар достигнет насыщения.
f - Относительная влажность воздуха - влажноcть воздуха, измеренная на высоте 2 м над землей.
Te - Эффективная температура - температура, которую ощущает одетый по сезону человек в тени. Характеристика душности погоды. При расчете учитывается влияние влажности воздуха и скорости ветра на теплоощущения человека.
Tes - Эффективная температура на солнце - температура, которую ощущает человек, с поправкой на солнечный нагрев. Характеристика знойности погоды. Зависит от высоты солнца над горизонтом, облачности и скорости ветра. Ночью, в пасмурную погоду, а также при ветре 12 м/с и более поправка равна нулю.
P - Атмосферное давление - приведенное к уровню моря атмосферное давление.
Po - Атмосферное давление - измеренное на уровне метеостанции атмосферное давление.
Tmin - Минимальная температура - минимум температуры воздуха на высоте 2 м над землей.
Tmax - Максимальная температура - максимум температуры воздуха на высоте 2 м над землей.
R - Количество осадков - Количество выпавших осадков за период времени, мм. При наведении курсора мыши на число - период времени, за который выпало указанное количество осадков.
R24 - Количество осадков - Количество выпавших осадков за 24 часа, мм.
S - Снежный покров - Высота снежного покрова, см. При наведении курсора мыши на число - состояние снежного покрова и степень покрытия местности в баллах.